Time,TemperatureF,DewpointF,PressureIn,WindDirection,WindDirectionDegrees,WindSpeedMPH,WindSpeedGustMPH,Humidity,HourlyPrecipIn,Conditions,Clouds,dailyrainin,SoftwareType,DateUTC
2013-01-17 00:15:00,49.8,49.0,29.86,NNW,346,6.0,-999.0,97,-99.99,,,0.00,weatherlink.com 1.10,2013-01-17 05:15:00,
2013-01-17 00:30:00,49.9,49.0,29.86,NNW,346,0.0,-999.0,97,-99.99,,,0.00,weatherlink.com 1.10,2013-01-17 05:30:00,
2013-01-17 00:45:00,50.1,49.0,29.86,NNW,346,0.0,-999.0,97,-99.99,,,0.00,weatherlink.com 1.10,2013-01-17 05:45:00,
2013-01-17 01:00:00,50.3,50.0,29.86,NNW,346,0.0,-999.0,97,-99.99,,,0.00,weatherlink.com 1.10,2013-01-17 06:00:00,
2013-01-17 01:15:00,50.1,49.0,29.86,NNW,346,0.0,-999.0,97,-99.99,,,0.00,weatherlink.com 1.10,2013-01-17 06:15:00,
2013-01-17 01:30:00,50.3,50.0,29.87,NNW,346,0.0,-999.0,97,-99.99,,,0.00,weatherlink.com 1.10,2013-01-17 06:30:00,
2013-01-17 01:45:00,50.3,50.0,29.87,NNW,346,0.0,-999.0,97,-99.99,,,0.01,weatherlink.com 1.10,2013-01-17 06:45:00,
2013-01-17 02:00:00,50.3,50.0,29.86,NNW,346,0.0,-999.0,97,-99.99,,,0.02,weatherlink.com 1.10,2013-01-17 07:00:00,
2013-01-17 02:15:00,50.4,50.0,29.85,NNW,346,0.0,-999.0,97,-99.99,,,0.04,weatherlink.com 1.10,2013-01-17 07:15:00,
2013-01-17 02:30:00,50.9,50.0,29.85,NNW,346,1.0,-999.0,97,-99.99,,,0.05,weatherlink.com 1.10,2013-01-17 07:30:00,
2013-01-17 02:45:00,51.1,50.0,29.85,NNW,346,0.0,-999.0,97,-99.99,,,0.05,weatherlink.com 1.10,2013-01-17 07:45:00,
2013-01-17 03:00:00,51.2,50.0,29.84,NNW,346,0.0,-999.0,97,-99.99,,,0.06,weatherlink.com 1.10,2013-01-17 08:00:00,
2013-01-17 03:15:00,51.3,51.0,29.84,NNW,346,0.0,-999.0,97,-99.99,,,0.06,weatherlink.com 1.10,2013-01-17 08:15:00,
2013-01-17 03:30:00,51.4,51.0,29.83,NNW,346,0.0,-999.0,97,-99.99,,,0.07,weatherlink.com 1.10,2013-01-17 08:30:00,
2013-01-17 03:45:00,51.5,51.0,29.82,NNW,346,0.0,-999.0,97,-99.99,,,0.08,weatherlink.com 1.10,2013-01-17 08:45:00,
2013-01-17 04:00:00,51.3,51.0,29.82,NNW,346,0.0,-999.0,97,-99.99,,,0.09,weatherlink.com 1.10,2013-01-17 09:00:00,
2013-01-17 04:15:00,51.2,50.0,29.82,North,5,1.0,-999.0,97,-99.99,,,0.10,weatherlink.com 1.10,2013-01-17 09:15:00,
2013-01-17 04:30:00,50.9,50.0,29.83,NE,40,0.0,-999.0,97,-99.99,,,0.12,weatherlink.com 1.10,2013-01-17 09:30:00,
2013-01-17 04:45:00,51.0,50.0,29.83,NE,41,1.0,-999.0,97,-99.99,,,0.13,weatherlink.com 1.10,2013-01-17 09:45:00,
2013-01-17 05:00:00,50.9,50.0,29.82,NE,40,0.0,-999.0,97,-99.99,,,0.15,weatherlink.com 1.10,2013-01-17 10:00:00,
2013-01-17 05:15:00,50.8,50.0,29.82,NE,34,4.0,-999.0,97,-99.99,,,0.15,weatherlink.com 1.10,2013-01-17 10:15:00,
2013-01-17 05:30:00,50.6,50.0,29.81,NNW,339,5.0,-999.0,97,-99.99,,,0.16,weatherlink.com 1.10,2013-01-17 10:30:00,
2013-01-17 05:46:00,50.5,50.0,29.81,ENE,76,2.0,-999.0,97,-99.99,,,0.16,weatherlink.com 1.10,2013-01-17 10:46:00,
2013-01-17 06:00:00,50.3,50.0,29.81,ENE,57,2.0,-999.0,97,-99.99,,,0.17,weatherlink.com 1.10,2013-01-17 11:00:00,
2013-01-17 06:15:00,50.1,49.0,29.80,NNW,340,0.0,-999.0,97,-99.99,,,0.18,weatherlink.com 1.10,2013-01-17 11:15:00,
2013-01-17 06:30:00,49.5,49.0,29.80,NNE,13,3.0,-999.0,97,-99.99,,,0.19,weatherlink.com 1.10,2013-01-17 11:30:00,
2013-01-17 06:45:00,49.2,48.0,29.80,NE,41,3.0,-999.0,97,-99.99,,,0.19,weatherlink.com 1.10,2013-01-17 11:45:00,
2013-01-17 07:00:00,49.2,48.0,29.81,NNE,22,0.0,-999.0,97,-99.99,,,0.19,weatherlink.com 1.10,2013-01-17 12:00:00,
2013-01-17 07:15:00,48.8,48.0,29.81,East,80,2.0,-999.0,97,-99.99,,,0.20,weatherlink.com 1.10,2013-01-17 12:15:00,
2013-01-17 07:30:00,48.6,48.0,29.80,NE,45,2.0,-999.0,97,-99.99,,,0.22,weatherlink.com 1.10,2013-01-17 12:30:00,
2013-01-17 07:45:00,48.4,48.0,29.80,ENE,68,3.0,-999.0,97,-99.99,,,0.23,weatherlink.com 1.10,2013-01-17 12:45:00,
2013-01-17 08:00:00,48.5,48.0,29.80,North,5,4.0,-999.0,97,-99.99,,,0.25,weatherlink.com 1.10,2013-01-17 13:00:00,
2013-01-17 08:15:00,47.8,47.0,29.80,ENE,59,3.0,-999.0,97,-99.99,,,0.27,weatherlink.com 1.10,2013-01-17 13:15:00,
2013-01-17 08:30:00,47.4,47.0,29.80,NNW,346,6.0,-999.0,97,-99.99,,,0.30,weatherlink.com 1.10,2013-01-17 13:30:00,
2013-01-17 08:45:00,47.3,47.0,29.81,North,360,5.0,-999.0,97,-99.99,,,0.31,weatherlink.com 1.10,2013-01-17 13:45:00,
2013-01-17 09:00:00,47.4,47.0,29.80,NNW,340,4.0,-999.0,97,-99.99,,,0.37,weatherlink.com 1.10,2013-01-17 14:00:00,
2013-01-17 09:15:00,47.1,46.0,29.80,North,360,7.0,-999.0,97,-99.99,,,0.42,weatherlink.com 1.10,2013-01-17 14:15:00,
2013-01-17 09:30:00,47.1,46.0,29.80,NNW,331,5.0,-999.0,97,-99.99,,,0.44,weatherlink.com 1.10,2013-01-17 14:30:00,
2013-01-17 09:45:00,47.0,46.0,29.80,NE,41,7.0,-999.0,97,-99.99,,,0.44,weatherlink.com 1.10,2013-01-17 14:45:00,
2013-01-17 10:00:00,46.6,46.0,29.78,NE,34,3.0,-999.0,97,-99.99,,,0.46,weatherlink.com 1.10,2013-01-17 15:00:00,
2013-01-17 10:15:00,46.6,46.0,29.77,NNE,26,9.0,-999.0,97,-99.99,,,0.47,weatherlink.com 1.10,2013-01-17 15:15:00,
2013-01-17 10:30:00,46.3,46.0,29.77,NNW,348,12.0,-999.0,97,-99.99,,,0.50,weatherlink.com 1.10,2013-01-17 15:30:00,
2013-01-17 10:45:00,46.2,45.0,29.76,North,355,12.0,-999.0,97,-99.99,,,0.57,weatherlink.com 1.10,2013-01-17 15:45:00,
2013-01-17 11:00:00,46.1,45.0,29.74,ENE,65,7.0,-999.0,97,-99.99,,,0.60,weatherlink.com 1.10,2013-01-17 16:00:00,
2013-01-17 11:15:00,46.0,45.0,29.73,NNE,22,13.0,-999.0,97,-99.99,,,0.66,weatherlink.com 1.10,2013-01-17 16:15:00,
2013-01-17 11:30:00,45.7,45.0,29.73,NNW,348,9.0,-999.0,97,-99.99,,,0.68,weatherlink.com 1.10,2013-01-17 16:30:00,
2013-01-17 11:45:00,45.5,45.0,29.71,NE,36,7.0,-999.0,97,-99.99,,,0.81,weatherlink.com 1.10,2013-01-17 16:45:00,
2013-01-17 12:00:00,46.3,46.0,29.69,North,360,9.0,-999.0,97,-99.99,,,0.87,weatherlink.com 1.10,2013-01-17 17:00:00,
2013-01-17 12:15:00,46.1,45.0,29.68,North,355,10.0,-999.0,97,-99.99,,,0.90,weatherlink.com 1.10,2013-01-17 17:15:00,
2013-01-17 12:30:00,45.9,45.0,29.67,NNE,31,9.0,-999.0,97,-99.99,,,0.93,weatherlink.com 1.10,2013-01-17 17:30:00,
2013-01-17 12:45:00,46.0,45.0,29.65,NNE,21,16.0,-999.0,97,-99.99,,,0.94,weatherlink.com 1.10,2013-01-17 17:45:00,
2013-01-17 13:00:00,45.4,45.0,29.64,NNE,23,9.0,-999.0,97,-99.99,,,0.98,weatherlink.com 1.10,2013-01-17 18:00:00,
2013-01-17 13:15:00,44.9,44.0,29.62,North,360,10.0,-999.0,97,-99.99,,,1.01,weatherlink.com 1.10,2013-01-17 18:15:00,
2013-01-17 13:31:00,44.5,44.0,29.63,NE,48,6.0,-999.0,96,-99.99,,,1.08,weatherlink.com 1.10,2013-01-17 18:31:00,
2013-01-17 13:45:00,44.4,43.0,29.62,North,5,22.0,-999.0,96,-99.99,,,1.16,weatherlink.com 1.10,2013-01-17 18:45:00,
2013-01-17 14:00:00,44.5,44.0,29.63,NNE,15,16.0,-999.0,96,-99.99,,,1.21,weatherlink.com 1.10,2013-01-17 19:00:00,
2013-01-17 14:15:00,44.3,43.0,29.65,NNE,22,7.0,-999.0,96,-99.99,,,1.26,weatherlink.com 1.10,2013-01-17 19:15:00,
2013-01-17 14:30:00,44.1,43.0,29.68,NNW,328,18.0,-999.0,97,-99.99,,,1.32,weatherlink.com 1.10,2013-01-17 19:30:00,
2013-01-17 14:45:00,44.0,43.0,29.68,NE,39,8.0,-999.0,97,-99.99,,,1.37,weatherlink.com 1.10,2013-01-17 19:45:00,
2013-01-17 15:00:00,43.8,43.0,29.65,North,9,9.0,-999.0,96,-99.99,,,1.41,weatherlink.com 1.10,2013-01-17 20:00:00,
2013-01-17 15:15:00,43.1,42.0,29.63,ENE,63,15.0,-999.0,96,-99.99,,,1.44,weatherlink.com 1.10,2013-01-17 20:15:00,
2013-01-17 15:30:00,42.9,42.0,29.61,NE,36,25.0,-999.0,96,-99.99,,,1.46,weatherlink.com 1.10,2013-01-17 20:30:00,
2013-01-17 15:45:00,42.4,41.0,29.59,NNE,19,19.0,-999.0,96,-99.99,,,1.47,weatherlink.com 1.10,2013-01-17 20:45:00,
2013-01-17 16:00:00,42.0,41.0,29.58,NE,42,30.0,-999.0,96,-99.99,,,1.48,weatherlink.com 1.10,2013-01-17 21:00:00,
2013-01-17 16:15:00,41.1,40.0,29.61,ENE,62,11.0,-999.0,96,-99.99,,,1.48,weatherlink.com 1.10,2013-01-17 21:15:00,
2013-01-17 16:30:00,40.4,39.0,29.61,ENE,61,8.0,-999.0,96,-99.99,,,1.48,weatherlink.com 1.10,2013-01-17 21:30:00,
2013-01-17 16:45:00,40.1,39.0,29.66,NNW,346,12.0,-999.0,96,-99.99,,,1.48,weatherlink.com 1.10,2013-01-17 21:45:00,
2013-01-17 17:00:00,39.8,39.0,29.68,NNW,333,23.0,-999.0,95,-99.99,,,1.49,weatherlink.com 1.10,2013-01-17 22:00:00,
2013-01-17 17:15:00,39.7,38.0,29.71,NW,323,10.0,-999.0,95,-99.99,,,1.50,weatherlink.com 1.10,2013-01-17 22:15:00,
2013-01-17 17:30:00,39.7,38.0,29.73,ENE,72,1.0,-999.0,95,-99.99,,,1.53,weatherlink.com 1.10,2013-01-17 22:30:00,
2013-01-17 17:45:00,39.6,38.0,29.73,NNW,340,4.0,-999.0,95,-99.99,,,1.56,weatherlink.com 1.10,2013-01-17 22:45:00,
2013-01-17 18:00:00,39.6,39.0,29.74,NNW,339,4.0,-999.0,96,-99.99,,,1.58,weatherlink.com 1.10,2013-01-17 23:00:00,
2013-01-17 18:15:00,39.5,39.0,29.78,WNW,289,0.0,-999.0,96,-99.99,,,1.58,weatherlink.com 1.10,2013-01-17 23:15:00,
2013-01-17 18:30:00,38.9,38.0,29.80,South,178,5.0,-999.0,96,-99.99,,,1.60,weatherlink.com 1.10,2013-01-17 23:30:00,
2013-01-17 18:45:00,38.1,37.0,29.83,South,174,0.0,-999.0,95,-99.99,,,1.64,weatherlink.com 1.10,2013-01-17 23:45:00,
2013-01-17 19:00:00,37.4,36.0,29.86,NNW,344,6.0,-999.0,95,-99.99,,,1.66,weatherlink.com 1.10,2013-01-18 00:00:00,
2013-01-17 19:15:00,36.9,36.0,29.87,NNW,346,11.0,-999.0,95,-99.99,,,1.67,weatherlink.com 1.10,2013-01-18 00:15:00,
2013-01-17 19:30:00,36.4,35.0,29.88,NNE,12,13.0,-999.0,95,-99.99,,,1.67,weatherlink.com 1.10,2013-01-18 00:30:00,
2013-01-17 19:45:00,35.7,34.0,29.89,NNW,331,21.0,-999.0,94,-99.99,,,1.67,weatherlink.com 1.10,2013-01-18 00:45:00,
2013-01-17 20:00:00,35.3,34.0,29.89,NW,320,19.0,-999.0,95,-99.99,,,1.67,weatherlink.com 1.10,2013-01-18 01:00:00,
2013-01-17 20:15:00,35.3,34.0,29.91,NW,315,8.0,-999.0,95,-99.99,,,1.68,weatherlink.com 1.10,2013-01-18 01:15:00,
2013-01-17 20:31:00,35.4,34.0,29.93,NNE,32,12.0,-999.0,94,-99.99,,,1.68,weatherlink.com 1.10,2013-01-18 01:31:00,
2013-01-17 20:45:00,35.5,34.0,29.95,NNW,336,9.0,-999.0,94,-99.99,,,1.68,weatherlink.com 1.10,2013-01-18 01:45:00,
2013-01-17 21:01:00,35.5,34.0,29.96,NNE,29,3.0,-999.0,93,-99.99,,,1.68,weatherlink.com 1.10,2013-01-18 02:01:00,
2013-01-17 21:16:00,35.3,33.0,29.95,North,11,11.0,-999.0,90,-99.99,,,1.68,weatherlink.com 1.10,2013-01-18 02:16:00,
2013-01-17 21:31:00,35.2,32.0,29.98,NW,326,18.0,-999.0,87,-99.99,,,1.68,weatherlink.com 1.10,2013-01-18 02:31:00,
2013-01-17 21:46:00,34.9,30.0,29.98,NNW,339,22.0,-999.0,82,-99.99,,,1.68,weatherlink.com 1.10,2013-01-18 02:46:00,
2013-01-17 22:01:00,34.9,29.0,29.99,North,355,16.0,-999.0,79,-99.99,,,1.68,weatherlink.com 1.10,2013-01-18 03:01:00,
2013-01-17 22:16:00,34.6,28.0,30.01,North,355,14.0,-999.0,76,-99.99,,,1.68,weatherlink.com 1.10,2013-01-18 03:16:00,
2013-01-17 22:31:00,34.4,27.0,30.01,NNW,341,10.0,-999.0,74,-99.99,,,1.68,weatherlink.com 1.10,2013-01-18 03:31:00,
2013-01-17 22:46:00,34.3,26.0,30.04,NNW,344,12.0,-999.0,71,-99.99,,,1.68,weatherlink.com 1.10,2013-01-18 03:46:00,
2013-01-17 23:01:00,34.0,26.0,30.05,North,355,15.0,-999.0,72,-99.99,,,1.68,weatherlink.com 1.10,2013-01-18 04:01:00,
2013-01-17 23:16:00,33.5,26.0,30.04,NNW,348,9.0,-999.0,74,-99.99,,,1.68,weatherlink.com 1.10,2013-01-18 04:16:00,
2013-01-17 23:31:00,33.3,25.0,30.06,NNW,342,5.0,-999.0,72,-99.99,,,1.68,weatherlink.com 1.10,2013-01-18 04:31:00,
2013-01-17 23:46:00,32.6,25.0,30.08,NNW,341,12.0,-999.0,74,-99.99,,,1.68,weatherlink.com 1.10,2013-01-18 04:46:00,